STARLINK-31872, 59922

Orbit data source: Space-Track

STARLINK-31872, 59922 is a payload satellite owned by SpaceX/Seattle (US) in LEO that was launched on Sat, 01 Jun 2024 UTC via an FALCON 9 launch vehicle from the Air Force Eastern Test Range (AFETR). Payload-class satellites include a variety of spacecraft equipped with specific instruments for various scientific and technological missions. These include communications satellites like Starlink; space stations such as the ISS; scientific satellites like the Hubble; Earth observation satellites from companies like Planet Labs, Umbra, and HawkEye 360; GPS; miniature CubeSats for education and research; and military/defense satellites.

Loading next visibility...
Identifier
59922, 2024-106A
Orbit
LEO
Country
Flag of USUS
Related business
Manufacturer
SpaceX/Seattle
Mission
Operational Commercial Communications
Bus & Motor
STARLINK V2M, Unknown motor
Mass
730 kg wet, ~700 kg dry
Launch date (UTC)
2024-06-01 (1 year ago)
Launch vehicle
FALCON 9
Launch site
Air Force Eastern Test Range (AFETR)
Object type
Payload
Rocket body
Debris
Shape & HBR
Box + 2 Pan, 17.7 m
Radar Cross Section
33.884 m², Large (>1 m²)

Expand to show TLE details & history
Last TLE update: 2 days ago

TLE from 2 days ago
0 STARLINK-31872
1 59922U 24106A   25307.32877288  .00002776  00000-0  11034-3 0  9996
2 59922  43.0025 326.4833 0001037 269.0503  91.0230 15.27587848 81232
Epoch: 2025-11-03T07:53Z
TLE epoch observation values (Epoch: 2025-11-03T07:53:25.976Z)
Latitude
-0.00002°
Longitude
165.29332°
Altitude
482.814 km
Speed
7.626 km/s
True Right ascension
21h 45m 55s
True Declination
0° 00' 00"
Sunlit
Object was in daylight at epoch
Visualization orbit readout
Latitude
Unknown
Longitude
Unknown
Altitude
Unknown
Speed
Unknown
Apparent Right ascension
Unknown
Apparent Declination
Unknown
Sunlit
N/A
Visualization observer readout
Local Sidereal Time
19:51:10
Azimuth
Unknown
Elevation
Unknown
Doppler factor
Unknown
Orbital elements
Apogee altitude
485.682 km
Perigee altitude
484.259 km
Semi-major axis
6,863.107 km
Eccentricity
0.0001
Inclination
43.0025°
RAAN
326.4833°
Arg. of periapsis
269.0503°
True anomaly
91.03488°
Mean anomaly
91.023°
Eccentric anomaly
91.02894°
Mean motion
3.81735 °/min
Orbital period
94.31 mins
BSTAR
0.00011034
Loading maneuver chart data...
Computing Atmospheric mass density...
Loading historical data...
Loading historical data...
Loading historical data...
Loading historical data...
Loading historical data...
Loading historical data...
Loading historical data...

Documentation

Showing up to 5 results
|